Location: Observatorio Las Palmas
(29.0667°N, 110.9333°W)
Time: 01:27:46
(UTC-07:00)

Hubble Space Telescope - Visible Passes

Search period start: 07 February 2016 00:00
Search period end: 17 February 2016 00:00
Orbit: 540 x 544 km, 28.5° (Epoch: 06 February)

Date Brightness Start Highest point End Pass type
(mag) Time Alt. Az. Time Alt. Az. Time Alt. Az.
07 Feb 3.5 20:18:26 10° SSW 20:18:59 13° SSW 20:18:59 13° SSW visible
08 Feb 2.9 20:08:38 10° SW 20:10:20 20° SSW 20:10:20 20° SSW visible
09 Feb 2.2 19:58:58 10° SW 20:01:39 29° SSW 20:01:39 29° SSW visible
10 Feb 1.5 19:49:22 10° SW 19:52:57 41° S 19:52:57 41° S visible
11 Feb 1.1 19:39:50 10° WSW 19:43:52 51° SSE 19:44:12 49° SSE visible
12 Feb 0.9 19:30:20 10° WSW 19:34:26 60° SSE 19:35:25 45° ESE visible
13 Feb 0.8 19:20:53 10° WSW 19:25:01 68° S 19:26:37 35° E visible
14 Feb 0.8 19:11:27 10° WSW 19:15:35 75° S 19:17:48 26° E visible
14 Feb 3.9 20:52:41 10° W 20:53:13 13° W 20:53:13 13° W visible
15 Feb 0.8 19:02:01 10° W 19:06:10 81° S 19:08:59 20° E visible
15 Feb 3.5 20:43:17 10° W 20:44:24 18° W 20:44:24 18° W visible
16 Feb 0.8 18:52:36 10° W 18:56:46 83° S 19:00:11 15° E visible
16 Feb 3.1 20:33:53 10° W 20:35:36 23° W 20:35:36 23° W visible
